SCP
1 1 1 0 0 0 0 0 0 0 0 0 0 0 0 0 0 0 0 0 0 0 0 0 0 0 0 0 0 0 0 0 0 0 0 0 0 0 0 0 0 0 0
1 1 1 1 0 0 0 0 0 0 0 0 0 0 0 0 0 0 0 0 0 0 0 0 0 0 0 0 0 0 0 0 0 0 0 0 0 0 0 0 0 0 0
1 1 1 1 0 0 0 0 0 0 0 0 0 0 0 0 0 0 0 0 0 0 0 0 0 0 0 0 0 0 0 0 0 0 0 0 0 0 0 0 0 0 0
1 1 1 1 1 1 0 0 0 0 0 0 0 0 0 0 0 0 0 0 0 0 0 0 0 0 0 0 0 0 0 0 0 0 0 0 0 0 0 0 0 0 0
1 1 1 1 1 1 0 0 0 0 0 0 0 0 0 0 0 0 0 0 0 0 0 0 0 0 0 0 0 0 0 0 0 0 0 0 0 0 0 0 0 0 0
1 1 1 1 1 1 0 0 0 0 0 0 0 0 0 0 0 0 0 0 0 0 0 0 0 0 0 0 0 0 0 0 0 0 0 0 0 0 0 0 0 0 0
1 1 1 1 1 1 0 0 0 0 0 0 0 0 0 0 0 0 0 0 0 0 0 0 0 0 0 0 0 0 0 0 0 0 0 0 0 0 0 0 0 0 0
1 1 1 1 1 1 0 0 0 0 0 0 0 0 0 0 0 0 0 0 0 0 0 0 0 0 0 0 0 0 0 0 0 0 0 0 0 0 0 0 0 0 0
1 1 1 1 1 1 1 0 0 0 0 0 0 0 0 0 0 0 0 0 0 0 0 0 0 0 0 0 0 0 0 0 0 0 0 0 0 0 0 0 0 0 0
1 1 1 1 1 1 1 1 0 0 0 0 0 0 0 0 0 0 0 0 0 0 0 0 0 0 0 0 0 0 0 0 0 0 0 0 0 0 0 0 0 0 0
1 1 1 1 1 1 1 1 0 0 0 0 0 0 0 0 0 0 0 0 0 0 0 0 0 0 0 0 0 0 0 0 0 0 0 0 0 0 0 0 0 0 0
1 1 1 1 1 1 1 1 0 0 0 0 0 0 0 0 0 0 0 0 0 0 0 0 0 0 0 0 0 0 0 0 0 0 0 0 0 0 0 0 0 0 0
1 1 1 1 1 1 1 0 0 0 0 0 0 0 0 0 0 0 0 0 0 0 0 0 0 0 0 0 0 0 0 0 0 0 0 0 0 0 0 0 0 0 0
1 1 1 1 1 1 1 0 0 0 0 0 0 0 0 0 0 0 0 0 0 0 0 0 0 0 0 0 0 0 0 0 0 0 0 0 0 0 0 0 0 0 0
1 1 1 1 1 1 0 0 0 0 0 0 0 0 0 0 0 0 0 0 0 0 0 0 0 0 0 0 0 0 0 0 0 0 0 0 0 0 0 0 0 0 0
1 1 1 1 1 0 0 0 0 0 0 0 0 0 0 0 0 0 0 0 0 0 0 0 0 0 0 0 0 0 0 0 0 0 0 0 0 0 0 0 0 0 0
1 1 1 1 0 0 0 0 0 0 0 0 0 0 0 0 0 0 0 0 0 0 0 0 0 0 0 0 0 0 0 0 0 0 0 0 0 0 0 0 0 0 0
1 1 1 0 0 0 0 0 0 0 0 0 0 0 0 0 0 0 0 0 0 0 0 0 0 0 0 0 0 0 0 0 0 0 0 0 0 0 0 0 0 0 0
1 1 0 0 0 0 0 0 0 0 0 0 0 0 0 0 0 0 0 0 0 0 0 0 0 0 0 0 0 0 0 0 0 0 0 0 0 0 0 0 0 0 0
0 0 0 0 0 0 0 0 0 0 0 0 0 0 0 0 0 0 0 0 0 0 0 0 0 0 0 0 0 0 0 0 0 0 0 0 0 0 0 0 0 0 0
0 0 0 0 0 0 0 0 0 0 0 0 0 0 0 0 0 0 0 0 0 0 0 0 0 0 0 0 0 0 0 0 0 0 0 0 0 0 0 0 0 0 0
0 0 0 0 0 0 0 0 0 0 0 0 0 0 0 0 0 0 0 0 0 0 0 0 0 0 0 0 0 0 0 0 0 0 0 0 0 0 0 0 0 0 0
0 0 0 0 0 0 0 0 0 0 0 0 0 0 0 0 0 0 0 0 0 0 0 0 0 0 0 0 0 0 0 0 0 0 0 0 0 0 0 0 0 0 0
0 0 0 0 0 0 0 0 0 0 0 0 0 0 0 0 0 0 0 0 0 0 0 0 0 0 0 0 0 0 0 0 0 0 0 0 0 0 0 0 0 0 0
0 0 0 0 0 0 0 0 0 0 0 0 0 0 0 0 0 0 0 0 0 0 0 0 0 0 0 0 0 0 0 0 0 0 0 0 0 0 0 0 0 0 0
0 0 0 0 0 0 0 0 0 0 0 0 0 0 0 0 0 0 0 0 0 0 0 0 0 0 0 0 0 0 0 0 0 0 0 0 0 0 0 0 0 0 0
Wind_Speed
8 6 6 5 5 5 5 5 5 4 4 4 4 4 3 2 2 2 2 2 1 1 0 0 1 1 0 1 0 1 1 1 1 3 2 2 2 2 2 2 3 3 4
8 7 7 6 6 6 5 5 5 4 4 5 5 4 4 3 3 3 2 2 2 2 1 1 1 1 1 1 0 0 1 1 2 2 2 2 2 2 2 3 3 3 3
9 8 7 6 7 6 6 5 5 5 4 5 5 5 4 4 3 3 3 3 3 3 2 2 2 1 1 1 1 1 1 0 1 1 2 2 1 2 2 3 3 2 3
8 8 8 8 7 7 6 5 5 5 5 5 5 5 5 4 4 3 3 3 3 2 2 2 2 2 3 2 1 1 1 0 0 0 1 1 1 2 1 1 2 2 2
8 8 8 7 6 5 5 5 5 5 6 5 5 4 4 4 4 4 4 4 3 3 3 3 3 3 3 3 2 2 2 1 1 1 1 1 1 1 1 1 2 3 3
8 8 7 6 6 6 6 6 6 5 5 5 5 5 5 4 5 7 5 4 3 3 3 3 3 2 3 3 3 3 3 3 2 2 2 2 3 2 2 1 1 1 3
8 7 6 7 6 6 6 6 6 5 5 5 5 4 4 4 6 6 7 4 3 3 3 3 3 2 2 2 2 2 2 3 4 4 3 4 3 3 2 2 2 2 4
7 6 6 7 6 6 5 6 5 4 5 5 5 5 4 4 4 5 5 4 3 3 3 3 3 2 2 1 1 1 2 3 4 3 4 5 4 4 4 4 3 3 3
6 7 7 7 6 6 6 6 5 4 4 4 4 4 4 3 4 4 5 2 2 2 3 2 3 3 3 1 1 1 3 3 4 3 4 4 5 5 3 1 1 0 2
7 7 6 6 7 6 6 5 4 4 4 4 3 4 4 4 4 4 5 2 2 2 2 2 3 3 2 2 2 2 3 4 3 3 3 3 3 3 3 3 3 2 2
6 6 5 6 6 6 4 4 4 4 4 4 4 3 4 4 4 5 5 3 3 2 2 3 3 4 4 4 4 4 5 4 2 2 2 2 2 2 2 2 3 3 3
6 6 5 5 5 5 4 4 4 4 4 4 3 3 2 3 4 4 5 5 4 4 3 3 3 4 5 5 4 4 4 2 1 1 1 2 2 3 3 3 3 3 4
6 6 5 5 4 4 5 5 4 4 4 3 3 3 3 2 3 4 4 4 4 3 3 3 4 4 4 4 4 4 2 1 1 1 2 3 3 3 2 2 2 2 2
6 5 5 5 4 4 3 4 4 4 4 4 4 4 3 2 2 2 2 2 3 3 2 2 3 3 3 3 3 2 2 2 2 2 2 2 2 1 1 1 1 1 1
5 5 5 4 5 4 3 3 4 4 6 6 5 4 4 4 5 5 4 3 3 3 2 0 0 1 1 1 1 1 1 1 1 1 1 1 1 1 1 1 0 1 1
4 4 4 4 4 3 3 1 0 1 3 6 6 5 4 6 5 6 5 5 5 4 3 1 2 2 2 2 2 1 1 1 2 1 1 1 1 1 1 1 1 0 1
5 4 4 4 4 4 4 4 2 1 1 1 4 6 6 6 6 6 5 4 3 4 3 2 2 3 3 2 2 2 2 2 1 1 1 1 1 1 1 1 1 1 1
4 4 4 4 4 4 4 4 4 4 2 1 2 4 5 6 6 5 5 3 1 2 2 3 3 3 3 2 2 2 2 1 1 1 1 1 1 1 1 1 1 1 2
4 3 3 3 3 4 4 4 4 4 3 2 1 1 2 3 3 3 4 2 3 3 3 3 3 3 3 2 2 2 2 1 1 1 2 2 1 1 1 2 2 2 2
3 5 5 3 3 3 3 4 4 4 3 3 3 2 2 2 2 2 3 3 3 3 3 3 3 3 2 2 2 2 1 1 1 2 2 2 2 2 2 2 2 2 2
3 4 5 3 3 3 3 4 4 4 4 4 3 3 6 4 4 4 4 3 3 3 3 3 2 2 2 2 2 2 2 2 2 2 2 2 2 2 2 2 2 2 2
3 3 3 3 3 3 4 4 4 4 4 4 3 3 6 3 3 3 3 3 3 3 3 3 2 2 3 3 3 3 2 2 2 2 2 2 2 2 2 2 2 2 2
3 3 3 3 3 4 4 3 4 4 4 4 3 3 4 3 3 3 3 3 3 3 2 2 2 2 2 2 2 3 3 3 3 3 3 3 2 2 2 2 3 3 3
3 3 4 3 3 3 4 4 4 4 4 4 3 3 4 4 3 3 3 3 2 2 2 3 3 4 3 2 2 2 2 3 3 3 4 3 3 3 3 3 3 3 3
3 3 4 4 4 4 3 4 4 4 4 4 4 3 3 3 3 3 3 3 3 3 3 3 2 3 4 4 3 2 3 3 3 2 2 3 3 3 3 3 3 3 3
3 3 3 3 4 4 4 4 4 4 4 4 4 3 3 3 3 3 3 3 3 3 2 2 3 3 3 2 2 2 2 2 2 2 2 2 2 3 3 3 4 3 4
Wind_Direction
184 182 177 173 170 166 171 179 180 174 168 166 164 156 156 162 159 155 174 170 184 245 268 164 261 272 313 339 52 93 128 150 213 279 282 289 277 281 295 282 256 237 238
181 181 177 176 173 176 180 182 180 175 175 174 169 163 172 177 174 171 192 193 203 227 236 215 268 286 300 288 232 253 227 184 179 265 289 297 278 272 279 282 282 257 245
178 176 174 177 180 183 185 180 181 177 173 171 168 174 181 182 181 189 193 204 219 225 218 211 228 209 273 270 247 259 255 281 179 216 274 283 295 303 313 301 297 296 268
173 174 179 185 186 186 181 179 180 176 175 178 177 181 184 185 183 190 196 204 223 231 223 216 213 205 224 237 244 244 233 317 342 273 284 293 303 303 320 304 309 304 284
171 176 185 184 176 174 177 181 181 181 183 181 177 185 187 188 195 193 202 206 216 231 237 230 221 216 224 227 230 214 200 199 221 248 263 290 285 295 274 267 285 297 285
167 179 180 175 173 179 185 184 182 186 182 175 183 188 195 206 205 201 198 212 210 213 229 241 236 233 250 256 256 234 209 200 205 215 235 244 256 251 254 260 269 308 293
172 175 175 175 176 182 185 180 184 187 183 184 189 191 203 215 211 209 207 200 209 215 219 228 245 242 249 259 281 290 272 245 214 199 218 236 236 232 228 253 245 241 249
172 174 177 176 179 181 180 186 190 185 184 189 193 193 196 217 212 209 201 198 208 216 212 210 209 234 249 228 259 297 288 273 247 218 219 235 237 231 217 220 232 254 268
172 178 181 178 179 180 186 192 190 184 191 196 189 187 195 217 206 191 179 179 204 233 231 216 206 221 251 242 221 282 302 300 295 283 259 255 257 252 226 184 211 255 284
185 184 181 178 179 187 194 193 186 180 186 182 188 190 192 209 211 194 180 181 202 241 251 236 228 226 242 228 202 222 265 277 303 330 328 316 296 282 247 202 195 197 234
180 176 179 180 183 184 183 180 172 171 168 176 187 199 201 208 212 204 187 187 200 219 233 242 246 242 254 250 230 220 236 251 269 279 296 307 311 301 276 245 213 194 203
170 173 177 179 181 171 165 170 167 164 169 182 189 207 217 217 211 208 196 203 201 202 222 232 241 241 248 251 245 247 254 250 239 266 293 292 289 287 282 270 252 230 220
172 180 177 175 177 168 167 171 169 171 179 184 189 209 227 229 230 217 201 211 218 217 228 232 248 245 246 255 260 265 253 216 213 238 254 261 258 263 281 307 314 299 286
171 176 175 173 176 174 172 173 176 184 186 188 196 208 217 220 224 221 222 225 235 239 248 270 274 262 242 252 268 262 230 215 209 226 246 264 289 310 306 305 314 330 342
169 173 175 174 172 169 169 182 192 203 196 191 198 197 197 219 228 211 204 215 219 222 197 174 267 285 276 281 276 273 261 244 232 249 251 277 302 315 303 307 328 14 342
166 172 172 168 168 164 161 148 11 199 209 203 200 197 211 217 208 203 205 211 211 190 161 175 214 227 230 231 232 253 247 232 234 239 247 236 243 272 297 323 355 352 279
171 173 170 170 173 173 174 170 176 344 10 205 213 210 206 201 196 194 197 202 202 165 167 201 215 223 228 223 217 218 232 241 232 221 229 230 235 249 260 281 296 304 292
172 177 174 177 180 182 186 185 180 182 198 258 259 215 194 184 182 180 167 137 141 172 203 216 220 219 215 214 215 218 229 244 226 225 231 236 230 237 257 267 252 247 262
168 173 177 183 181 183 183 179 179 185 187 191 208 241 189 168 161 166 158 164 189 204 215 222 221 214 209 205 203 202 204 215 215 213 231 237 231 226 246 250 246 251 248
181 182 177 181 177 180 184 182 180 181 183 184 198 201 163 140 158 184 197 208 203 210 213 216 218 210 203 196 193 191 202 222 223 223 234 241 233 217 233 241 241 248 251
182 182 184 179 183 185 188 190 186 185 187 191 206 200 176 180 191 196 199 202 203 209 209 208 211 208 202 193 188 189 194 217 226 230 235 241 241 236 239 239 240 236 242
178 183 183 181 184 191 193 192 188 187 190 194 204 196 186 182 188 198 205 210 210 209 199 188 200 210 204 198 193 192 196 211 228 237 242 243 245 245 240 236 240 246 241
184 185 190 195 193 193 190 188 186 186 188 191 187 182 186 200 201 204 210 209 203 204 195 180 181 204 213 200 194 192 199 213 221 222 231 243 243 239 239 237 237 240 241
191 193 194 197 195 194 193 192 190 185 181 184 186 188 192 198 197 201 201 199 198 200 194 183 185 190 192 195 194 199 210 223 221 221 222 231 241 240 232 238 244 240 239
192 195 199 201 198 193 189 189 188 182 180 183 185 189 195 195 195 199 199 196 187 185 187 177 178 184 189 194 190 201 220 227 228 230 223 225 237 244 243 240 241 244 245
199 201 204 205 201 196 192 191 189 183 182 187 191 194 191 193 196 195 192 189 184 182 181 175 174 178 182 183 184 193 206 221 232 237 222 216 231 251 253 247 242 239 239